Hourly Data Report for September 25, 2005

TORONTO CITY
ONTARIO

43°40'00.000" N
79°24'00.000" W
112.50 m
6158355
71508
XTO

Download Data

Hourly Data (September 2005)
Hourly Data Report for September 25, 2005
TIME
LST
Temp Definition
°C
Dew Point Definition
°C
Rel Hum Definition
%
Precip. Amount Definition
mm

Wind Dir Definition
10's deg

Wind Spd Definition
km/h
Visibility Definition
km
Stn Press Definition
kPa
Hmdx Definition


Wind Chill Definition


Weather Definition


00:00 17.1 14.7 86   LegendMM LegendMM   100.57     LegendNANA
01:00 18.1 15.5 85   LegendMM LegendMM   100.49     LegendNANA
02:00 18.4 16.0 86   LegendMM LegendMM   100.49     LegendNANA
03:00 18.5 16.4 88   LegendMM LegendMM   100.46     LegendNANA
04:00 17.8 17.0 95   LegendMM LegendMM   100.46     LegendNANA
05:00 18.1 16.9 93   LegendMM LegendMM   100.44     LegendNANA
06:00 18.1 17.0 93   LegendMM LegendMM   100.48     LegendNANA
07:00 18.3 17.4 94   LegendMM LegendMM   100.43     LegendNANA
08:00 18.9 18.2 96   LegendMM LegendMM   100.44     LegendNANA
09:00 19.4 18.6 95   LegendMM LegendMM   100.43     LegendNANA
10:00 19.7 18.9 95   LegendMM LegendMM   100.40     LegendNANA
11:00 22.0 19.8 87   LegendMM LegendMM   100.37 29   LegendNANA
12:00 22.9 20.2 85   LegendMM LegendMM   100.33 31   LegendNANA
13:00 23.6 20.7 84   LegendMM LegendMM   100.25 32   LegendNANA
14:00 22.9 20.7 87   LegendMM LegendMM   100.18 31   LegendNANA
15:00 24.1 20.7 81   LegendMM LegendMM   100.09 32   LegendNANA
16:00 24.0 20.7 82   LegendMM LegendMM   100.01 32   LegendNANA
17:00 23.4 20.3 83   LegendMM LegendMM   99.97 31   LegendNANA
18:00 22.7 20.1 85   LegendMM LegendMM   99.92 30   LegendNANA
19:00 22.5 20.1 86   LegendMM LegendMM   99.89 30   LegendNANA
20:00 22.4 20.3 88   LegendMM LegendMM   99.87 30   LegendNANA
21:00 22.7 20.0 85   LegendMM LegendMM   99.85 30   LegendNANA
22:00 21.6 20.3 92   LegendMM LegendMM   99.80 29   LegendNANA
23:00 20.7 20.2 97   LegendMM LegendMM   99.73 28   LegendNANA

Notes on Data Quality.

Legend

  • E = Estimated
  • M = Missing
  • NA = Not Available*
  • [empty] = Indicates an unobserved value
Date modified: